[[{"header":{"parameterUnit":"m.s-1","parameterCategory":1,"la1":30.2992,"la2":30.254,"lo1":-89.0895,"lo2":-89.0443,"dy":0.0025,"dx":0.0025,"nx":19,"ny":19,"refTime":"2026-04-02T21:00:00:Z","depth":0,"parameterNumber":2,"parameterNumberName":"U-component_of_WINDS"},"data":[0,0,0,-3.0153,-3.0154,-3.022,-3.022,-3.0318,-3.0319,0,0,0,0,0,0,0,0,0,0,0,-3.0141,-3.0142,-3.0153,-3.0154,-3.022,-3.022,-3.0318,-3.0319,0,0,0,0,0,0,0,0,0,0,0,-3.0141,-3.0142,-3.0143,-3.0155,-3.022,-3.022,-3.0318,-3.0263,0,0,0,0,0,0,0,0,0,0,-3.0198,-3.0194,-3.0141,-3.0143,-3.0155,-3.022,-3.022,-3.0261,-3.0267,-3.0294,0,-3.032,0,-3.0321,-3.0326,-3.0327,0,0,0,-3.0149,-3.0189,-3.0199,-3.0143,-3.0156,-3.022,-3.0189,-3.0264,-3.0271,-3.0303,-3.0321,-3.0324,-3.0322,-3.0327,-3.0328,-3.05,-3.0501,0,0,-3.0146,-3.0157,-3.0195,-3.0204,-3.0194,-3.0187,-3.0191,-3.0268,-3.0289,-3.0321,-3.0326,-3.0324,-3.0328,-3.0329,-3.0499,-3.05,0,0,0,-3.0139,-3.0155,-3.0163,-3.0201,-3.0211,-3.0189,-3.0193,-3.0286,-3.0287,-3.0327,-3.0325,-3.0328,-3.033,-3.0498,-3.05,-3.0562,0,0,0,-3.0136,-3.0151,-3.0162,-3.017,-3.021,-3.0249,-3.021,-3.0282,-3.029,-3.0325,-3.0329,-3.0331,-3.0497,-3.0499,-3.0558,-3.059,0,0,0,-3.0134,-3.0151,-3.0163,-3.0171,-3.0199,-3.0248,-3.0253,-3.0284,-3.029,-3.0327,-3.0331,-3.0496,-3.0498,-3.0554,-3.0584,-3.0639,0,0,0,-3.0136,-3.0219,-3.0164,-3.0256,-3.0198,-3.0286,-3.0253,-3.0318,-3.0357,-3.0329,-3.0497,-3.0499,-3.0553,-3.058,-3.0635,-3.0687,-3.0709,0,0,-3.0247,-3.0233,-3.0286,-3.0238,-3.0338,-3.0275,-3.0384,-3.041,-3.0404,-3.0469,-3.0473,-3.0559,-3.0584,-3.0638,-3.0832,-3.085,0,0,0,-3.0325,-3.0364,-3.0387,-3.0425,-3.0445,-3.0465,-3.0473,-3.0482,-3.0536,-3.0439,-3.0594,-3.0608,-3.0639,-3.0663,-3.0679,-3.0705,-3.0511,-3.0511,-3.0511,-3.0501,-3.0486,-3.0573,-3.0566,-3.0603,-3.0609,-3.0637,-3.0651,-3.0628,-3.0664,-3.0684,-3.0803,-3.0832,-3.0844,-3.0871,-3.071,-3.071,-3.071,-3.0711,-3.0663,-3.0714,-3.0679,-3.075,-3.0735,-3.0795,-3.0804,-3.0785,-3.0839,-3.0788,-3.0815,-3.076,-3.0864,-3.0887,-3.0715,-3.0714,-3.0714,-3.0713,-3.0713,-3.0776,-3.0798,-3.0807,-3.0858,-3.09,-3.089,-3.0943,-3.0928,-3.0914,-3.0941,-3.0959,-3.0958,-3.0955,-3.095,-3.0951,-3.0951,-3.0951,-3.0952,-3.0952,-3.089,-3.0898,-3.0944,-3.0971,-3.0992,-3.1018,-3.1025,-3.1045,-3.1065,-3.1049,-3.105,-3.1022,-3.0876,-3.084,-3.0958,-3.0957,-3.0956,-3.0956,-3.0955,-3.106,-3.1019,-3.109,-3.1111,-3.1141,-3.1183,-3.1162,-3.1205,-3.122,-3.1247,-3.1214,-3.1108,-3.1093,-3.1081,-3.105,-3.1216,-3.1216,-3.1216,-3.1216,-3.1156,-3.1146,-3.1214,-3.1248,-3.1281,-3.1268,-3.1349,-3.1355,-3.1354,-3.1363,-3.1336,-3.1295,-3.1283,-3.1275,-3.1258,-3.123,-3.1437,-3.1438,-3.1438,-3.126,-3.1252,-3.1323,-3.132,-3.1342,-3.1362,-3.1438,-3.148,-3.1471,-3.1446,-3.1369,-3.1359,-3.1292,-3.1271,-3.1246,-3.1221,-3.1168,0,0]},{"header":{"parameterUnit":"m.s-1","parameterCategory":1,"la1":30.2992,"la2":30.254,"lo1":-89.0895,"lo2":-89.0443,"dy":0.0025,"dx":0.0025,"nx":19,"ny":19,"refTime":"2026-04-02T21:00:00:Z","depth":0,"parameterNumber":3,"parameterNumberName":"V-component_of_WINDS"},"data":[0,0,0,2.7302,2.7303,2.7346,2.7346,2.7404,2.7405,0,0,0,0,0,0,0,0,0,0,0,2.7292,2.7292,2.7302,2.7303,2.7346,2.7346,2.7404,2.7405,0,0,0,0,0,0,0,0,0,0,0,2.7292,2.7292,2.7293,2.7303,2.7346,2.7346,2.7404,2.737,0,0,0,0,0,0,0,0,0,0,2.7328,2.7321,2.7292,2.7293,2.7304,2.7346,2.7346,2.7369,2.7373,2.7387,0,2.74,0,2.7404,2.7409,2.7409,0,0,0,2.7301,2.7318,2.7328,2.7293,2.7304,2.7346,2.7326,2.7371,2.7375,2.7392,2.7401,2.7403,2.7405,2.741,2.741,2.7501,2.7501,0,0,2.7298,2.7301,2.7325,2.7331,2.7325,2.7325,2.7327,2.7373,2.7384,2.7401,2.7405,2.7406,2.741,2.741,2.75,2.7501,0,0,0,2.7293,2.7299,2.7307,2.7328,2.7336,2.7326,2.7329,2.7381,2.7384,2.7405,2.7406,2.741,2.7411,2.75,2.7501,2.753,0,0,0,2.7292,2.7296,2.7306,2.7308,2.7335,2.7359,2.7336,2.7381,2.7386,2.7406,2.741,2.7412,2.7499,2.75,2.7528,2.7544,0,0,0,2.7288,2.7296,2.7303,2.7308,2.7327,2.7359,2.7364,2.7382,2.7387,2.7409,2.7412,2.7499,2.75,2.7526,2.7541,2.7569,0,0,0,2.7285,2.7327,2.7303,2.7351,2.7327,2.7377,2.7363,2.74,2.7423,2.7411,2.7499,2.7501,2.7526,2.7539,2.7567,2.7595,2.7606,0,0,2.734,2.7334,2.7362,2.7342,2.7397,2.737,2.7429,2.7447,2.7446,2.7482,2.7485,2.7529,2.754,2.7569,2.7667,2.7676,0,0,0,2.738,2.7401,2.7415,2.7437,2.7453,2.7468,2.7477,2.7483,2.7514,2.7466,2.7546,2.7553,2.757,2.7583,2.759,2.7605,2.7506,2.7506,2.7506,2.7462,2.746,2.7506,2.751,2.7532,2.7541,2.7559,2.7569,2.756,2.7579,2.759,2.765,2.7665,2.7671,2.7686,2.7603,2.7603,2.7604,2.7604,2.7543,2.7572,2.7559,2.7601,2.7598,2.7632,2.7643,2.7635,2.7666,2.7641,2.7656,2.7629,2.7681,2.7694,2.7606,2.7605,2.7605,2.7605,2.7605,2.7597,2.761,2.7619,2.7652,2.7677,2.7679,2.771,2.7706,2.7702,2.7716,2.7728,2.7728,2.7728,2.7722,2.7722,2.7723,2.7723,2.7723,2.7723,2.765,2.7658,2.7685,2.7706,2.7721,2.7739,2.775,2.7763,2.7778,2.7772,2.7772,2.7762,2.7686,2.7668,2.7726,2.7726,2.7725,2.7725,2.7725,2.7735,2.7715,2.7757,2.7772,2.7797,2.7823,2.7817,2.7846,2.7857,2.7872,2.7859,2.7803,2.7797,2.7791,2.7776,2.7858,2.7858,2.7858,2.7858,2.7781,2.7777,2.782,2.7844,2.7867,2.7867,2.7914,2.7923,2.7928,2.7935,2.7922,2.7901,2.7895,2.7892,2.7884,2.787,2.7975,2.7975,2.7975,2.7834,2.7832,2.7874,2.788,2.7899,2.7916,2.7961,2.7988,2.799,2.798,2.794,2.7935,2.7902,2.7891,2.788,2.7867,2.7841,0,0]}]]